Theta_e
333 332 332 332 331 330 330 330 329 328 326 324 323 321 320 319 318 317 316 315 314 313 312 312 310 310 309 309 309 308 309 309 308 308 309 309 309 309 309 308 308 308
332 332 332 332 331 331 330 329 328 327 325 324 323 322 320 318 317 316 315 313 312 312 312 311 310 310 309 309 309 308 308 308 307 307 308 308 308 308 308 308 307 307
332 331 331 331 331 330 330 328 327 326 325 324 323 321 319 317 316 314 313 313 312 311 311 310 309 309 309 309 308 308 308 307 307 307 307 307 307 307 307 307 306 306
332 332 331 331 330 329 328 327 326 325 324 322 321 320 318 317 315 314 313 312 312 311 310 309 309 308 308 308 308 308 308 307 307 307 307 307 307 307 307 306 306 305
332 332 332 331 329 328 327 326 325 324 323 321 320 319 317 316 315 314 313 312 311 311 310 309 308 308 308 308 308 308 307 307 307 307 307 306 306 306 306 306 306 305
332 331 331 330 328 326 325 325 324 323 322 321 319 318 317 316 315 314 313 312 311 310 309 308 308 308 308 308 308 307 307 306 306 306 306 306 306 305 305 305 305 305
331 331 330 328 327 325 324 323 322 322 321 320 318 317 316 315 314 313 313 312 310 309 308 308 308 308 308 308 308 307 306 306 306 306 306 305 305 305 304 304 304 304
331 330 329 327 325 324 323 322 321 321 320 319 317 316 316 314 314 313 312 311 310 309 308 308 308 308 308 308 308 307 306 305 305 305 305 305 305 305 304 304 304 304
330 329 328 325 324 323 322 321 321 320 319 318 317 316 315 314 313 312 312 311 310 309 308 308 308 308 308 308 307 306 306 305 305 305 305 305 305 304 304 304 305 305
329 328 327 325 323 323 322 321 320 320 318 317 317 315 314 314 313 312 311 311 310 309 309 308 307 307 307 307 307 306 306 305 305 305 305 305 305 304 304 305 305 305
327 326 325 324 323 322 321 320 320 319 318 317 316 314 314 314 313 312 312 311 310 309 309 308 307 307 307 307 307 306 306 305 304 305 305 305 305 304 304 305 305 305
327 325 325 325 323 321 320 320 320 319 317 316 315 314 314 313 312 311 311 311 310 309 308 308 307 306 306 306 306 306 306 305 305 304 304 304 304 304 304 305 305 304
327 326 326 324 322 320 320 319 319 318 317 316 315 314 314 313 312 311 311 310 309 309 308 307 306 306 306 306 307 306 306 306 305 304 304 304 304 304 305 305 305 304
326 326 325 324 321 320 319 318 318 318 317 316 314 314 313 312 311 311 311 310 309 309 308 307 306 306 306 306 306 306 306 306 306 305 304 304 304 304 304 305 304 302
326 325 323 322 321 320 318 318 318 318 317 315 314 313 312 311 311 311 311 310 310 309 308 307 306 306 307 306 306 306 307 306 306 305 305 304 304 304 304 304 303 301
324 323 321 320 320 319 318 318 318 317 316 315 314 313 311 311 311 311 310 310 310 309 309 307 307 306 306 306 306 307 307 306 306 306 305 304 304 304 304 303 301 299
323 321 321 320 319 318 318 318 317 317 316 314 313 312 311 311 311 310 310 310 310 310 309 308 307 307 306 305 306 306 307 307 307 306 306 305 305 304 304 303 301 299
322 321 320 320 319 318 317 317 316 316 315 314 313 312 311 311 311 310 310 310 310 310 310 309 308 307 305 304 305 306 306 307 307 307 306 306 305 305 304 304 303 302
322 322 321 320 319 318 317 316 315 315 315 313 312 312 311 311 311 311 310 311 310 310 310 310 309 308 305 303 304 305 306 307 307 307 307 306 306 306 305 304 304 304
322 322 322 320 318 317 316 316 315 314 314 312 312 312 312 311 311 310 310 310 310 310 310 309 309 308 305 303 303 305 305 306 307 307 306 306 306 306 306 305 304 304
320 319 320 318 317 316 315 315 314 313 313 312 312 312 312 311 311 310 310 310 309 310 310 309 309 308 304 301 301 304 305 305 306 307 306 306 306 306 306 305 304 305
319 318 317 316 316 315 315 315 314 313 313 312 312 312 311 310 310 310 310 310 309 310 310 309 309 308 304 299 299 301 303 304 306 306 306 306 306 305 306 305 303 304
318 317 316 315 315 314 314 315 314 313 313 312 311 311 310 309 309 309 310 310 309 309 309 309 309 307 304 300 298 298 301 303 305 306 306 307 306 305 305 305 303 303
317 317 316 316 315 314 314 314 314 313 312 310 310 309 308 308 308 308 308 309 308 309 309 309 309 307 304 301 298 297 299 302 305 306 306 307 307 305 305 305 303 303
317 317 316 315 315 314 313 313 313 311 310 309 308 308 307 306 306 306 307 307 307 308 308 308 308 307 304 301 299 298 298 300 304 307 306 306 307 305 305 305 303 301
318 316 315 315 314 313 312 311 311 309 308 308 307 307 306 305 304 304 304 304 305 306 306 307 308 307 305 302 301 300 298 299 304 307 306 306 307 305 305 305 303 299
Wind_Speed
22 21 21 20 18 18 17 15 15 15 15 14 13 12 12 12 12 11 11 11 11 11 11 11 11 11 11 10 10 10 10 10 10 10 10 10 10 10 10 10 9 9
23 22 23 22 19 18 17 16 16 16 15 13 13 13 13 13 13 12 12 12 12 11 11 11 11 11 11 10 10 10 10 10 10 10 10 10 10 10 10 10 9 9
23 22 23 22 19 18 18 18 17 15 15 14 13 14 15 14 13 13 13 13 13 12 12 11 11 11 11 11 10 10 10 10 10 10 9 9 9 9 9 9 9 9
23 22 23 22 20 20 20 19 17 15 15 15 16 15 15 15 14 14 14 13 13 13 12 12 12 11 11 11 10 10 10 10 10 9 9 9 9 9 9 9 9 9
24 23 23 22 21 22 20 18 18 17 16 16 16 16 16 16 15 15 14 14 13 13 13 12 12 12 11 11 10 10 10 9 9 9 9 10 9 9 9 9 9 8
25 24 23 22 22 21 19 17 17 17 16 16 16 16 16 16 15 15 15 14 14 14 13 13 13 12 11 11 11 10 10 9 9 9 10 10 9 9 9 9 8 7
26 26 24 21 22 21 18 17 17 17 17 16 16 16 16 16 15 15 15 15 14 14 14 13 13 12 12 11 10 10 10 10 10 10 10 10 10 10 9 9 8 8
27 27 23 21 21 20 18 18 18 17 16 16 16 16 16 16 16 16 15 15 15 14 14 14 13 13 12 11 11 11 11 10 10 10 10 10 10 10 9 9 8 8
27 25 22 22 23 21 19 18 18 17 17 16 16 16 16 16 16 16 16 15 15 15 14 14 13 13 12 11 12 12 11 10 10 10 10 10 10 10 9 9 8 7
26 25 23 23 23 22 20 19 19 18 17 16 17 17 16 16 16 16 16 16 15 15 15 14 14 13 12 12 13 12 11 11 11 11 10 10 10 10 9 9 8 7
24 25 24 22 22 21 21 20 19 18 18 17 17 17 17 16 16 16 16 16 15 15 15 15 14 14 13 13 13 12 12 11 11 11 10 10 10 10 9 8 8 7
25 24 25 23 22 22 22 20 19 18 18 17 16 17 17 17 17 16 16 16 15 15 15 15 14 14 14 14 13 13 12 11 11 11 10 10 10 9 9 8 8 7
25 25 26 24 22 23 22 20 19 18 18 17 16 17 17 17 17 16 16 16 16 15 15 15 15 15 14 14 14 14 13 12 12 11 11 10 10 9 9 8 8 7
26 25 25 23 22 23 22 20 19 18 17 16 16 17 17 17 17 16 16 16 16 16 15 15 15 15 15 15 14 14 13 13 12 12 11 11 10 10 9 9 8 8
26 25 23 22 22 22 21 19 19 18 16 16 16 16 16 16 16 16 16 16 16 16 15 15 15 15 15 16 15 14 14 13 12 12 12 11 11 10 9 9 9 8
26 24 22 22 22 22 21 20 19 18 16 16 16 16 16 16 16 16 16 16 16 16 16 15 15 14 16 17 16 15 14 13 13 12 12 12 11 11 10 9 9 9
25 23 22 22 22 21 20 19 18 17 16 16 17 17 17 17 17 17 17 17 17 17 16 16 14 15 19 20 18 16 15 12 12 12 12 12 11 11 11 10 10 9
24 23 23 22 21 21 21 22 21 20 19 18 18 18 18 17 17 17 17 16 17 17 16 15 14 16 20 22 20 18 16 13 12 12 11 11 11 11 11 10 10 9
24 24 23 21 22 23 23 22 23 22 20 19 18 17 17 17 16 16 16 16 16 16 16 15 14 15 20 24 23 20 18 15 11 11 11 11 11 11 10 10 10 9
25 25 23 23 25 26 24 22 22 22 19 18 18 17 16 16 17 16 16 16 16 16 16 15 14 15 18 24 24 21 20 15 9 10 12 10 11 10 9 10 10 9
26 27 27 27 28 27 24 23 24 21 19 18 17 17 16 16 16 16 16 16 16 15 15 15 15 15 18 23 25 23 22 15 8 9 12 10 10 10 8 9 9 8
28 32 32 28 26 26 24 23 22 21 19 18 17 16 15 14 15 15 15 15 15 15 15 14 15 15 18 22 23 24 24 15 8 10 12 10 10 11 9 9 9 8
29 33 33 29 28 28 26 22 22 21 20 18 17 16 15 13 13 13 13 13 14 14 14 13 14 15 17 20 21 24 25 16 9 10 12 10 11 11 9 9 9 9
28 31 33 32 33 33 27 22 21 22 23 23 23 22 19 16 13 11 11 12 13 14 13 12 13 15 18 20 20 23 25 17 10 11 12 11 11 11 10 10 10 12
25 28 31 34 36 34 27 22 23 25 26 26 24 24 22 19 15 12 10 9 10 12 13 12 12 14 18 21 21 23 24 19 12 10 12 11 11 12 11 10 10 13
23 24 26 31 36 34 28 26 27 27 25 21 18 18 19 20 19 17 14 12 10 11 13 13 12 13 18 23 23 22 24 21 14 10 11 12 11 11 12 11 9 12
Wind_Direction
186 181 174 173 171 172 171 168 167 168 170 173 170 170 168 158 153 148 140 136 132 128 128 127 126 125 123 123 121 120 116 109 106 104 102 102 100 98 95 91 89 87
183 177 173 173 170 170 170 169 169 167 169 173 169 166 163 156 151 147 141 137 135 133 132 132 131 130 127 126 125 122 119 114 112 111 109 108 105 99 95 92 89 86
176 173 174 173 168 167 169 169 167 164 164 167 169 166 159 155 152 147 142 140 138 136 136 136 135 133 131 129 128 125 123 121 120 120 117 112 109 104 100 97 93 88
174 173 172 171 170 169 169 167 162 157 158 163 167 164 158 155 152 147 144 143 142 140 139 139 137 136 135 134 133 129 127 128 128 127 123 116 112 109 106 102 98 93
174 173 172 172 173 170 166 162 155 151 157 162 163 160 158 155 151 149 149 147 146 144 142 142 141 140 140 139 136 133 133 134 135 134 127 121 118 113 110 107 104 101
174 174 174 174 171 168 164 158 152 152 159 163 161 160 158 155 154 153 153 152 150 147 146 147 146 146 145 143 140 140 141 141 141 139 131 127 125 119 115 112 109 107
175 176 175 171 168 166 161 154 151 155 160 162 161 160 158 157 158 158 158 157 153 151 151 151 152 151 149 147 147 146 145 144 144 142 136 132 129 123 118 116 114 110
175 175 174 168 164 162 158 155 155 157 160 161 161 161 162 162 162 162 162 158 155 155 155 155 156 155 153 152 152 149 146 146 147 144 139 136 132 127 124 121 119 115
175 174 171 167 166 163 160 158 157 157 161 163 162 163 165 167 166 165 163 160 158 158 158 159 159 157 157 156 154 152 149 148 147 144 142 140 135 131 129 126 124 119
174 174 168 166 168 166 162 159 157 160 164 165 165 166 167 169 168 166 164 162 161 161 161 162 162 159 160 159 157 154 151 148 147 147 145 143 138 135 133 130 127 122
173 171 167 166 168 166 163 162 160 161 165 167 168 168 169 169 168 167 166 165 165 165 163 163 163 162 162 162 158 154 151 150 149 149 148 143 139 137 135 131 128 123
174 169 169 170 168 165 162 162 163 163 165 168 170 170 170 170 169 169 169 169 168 167 166 164 163 164 165 163 159 155 153 152 151 150 148 144 141 138 136 134 129 122
173 168 172 174 168 164 162 162 165 164 164 169 171 171 172 171 171 171 171 172 171 169 167 165 164 167 168 165 161 158 156 154 154 152 149 147 146 142 138 134 128 122
169 167 172 170 163 162 162 163 164 163 165 171 172 173 174 173 173 172 172 173 173 170 168 166 167 171 171 168 165 161 158 158 159 157 154 152 149 144 142 137 130 120
166 167 167 162 159 159 160 162 164 163 167 171 172 174 175 175 175 174 174 175 174 171 169 168 172 175 174 172 169 163 161 162 163 161 158 157 153 151 148 141 132 122
163 163 160 157 158 158 160 162 162 162 167 171 173 175 175 176 177 176 178 178 175 173 172 172 176 180 178 175 171 166 164 165 167 166 165 163 161 159 156 146 137 132
160 159 156 156 157 156 159 160 159 163 170 173 175 177 177 178 179 178 181 181 177 176 175 175 182 187 182 178 173 168 165 168 171 171 170 170 168 165 163 156 148 147
157 156 156 157 156 156 159 161 161 166 174 176 178 179 178 179 180 180 181 182 179 179 178 178 187 194 188 182 176 169 166 169 175 177 176 176 174 172 169 164 160 162
156 158 160 158 157 160 163 164 164 168 174 177 177 178 178 178 180 182 181 182 182 181 181 181 187 196 193 186 180 173 169 170 176 182 184 182 180 178 173 170 168 169
155 159 162 161 161 163 164 165 168 170 173 175 174 176 179 179 179 182 182 183 184 184 183 183 189 198 197 190 184 176 172 175 181 188 188 187 185 182 177 175 175 176
152 155 160 163 164 165 166 169 171 170 170 172 173 176 181 180 179 180 182 185 187 187 185 187 194 199 196 190 187 180 176 180 194 194 190 190 187 183 181 180 181 184
153 158 163 164 164 166 170 173 173 171 172 173 172 174 179 181 179 180 182 185 188 189 187 188 194 200 195 189 187 182 181 188 208 199 193 192 187 186 186 183 184 188
159 163 166 169 171 172 173 174 172 171 170 170 167 167 171 176 177 179 182 186 189 191 190 187 189 196 196 190 186 184 185 196 214 201 195 195 189 189 190 187 186 190
164 167 171 177 180 180 177 173 171 171 172 171 169 167 166 170 173 176 181 188 192 194 193 191 191 194 196 194 189 187 188 198 213 203 197 198 192 190 195 193 192 195
169 171 176 181 183 182 176 169 169 173 174 172 169 168 167 167 167 170 178 187 195 198 198 197 200 202 202 198 194 191 191 199 216 211 198 198 195 192 198 198 193 200
171 171 175 179 182 182 176 172 172 173 171 167 166 165 162 160 161 164 170 178 191 204 205 203 206 207 204 200 197 196 196 201 217 224 204 201 201 196 198 198 189 196